Regional Weather Roundup
Issued by NWS

Home | Current Version | Previous Version | Graphics & Text | Print | Product List | Glossary On
Versions: 1 2 3 4 5 6 7 8 9 10 11 12 13 14 15 16 17 18 19 20 21 22 23 24 25 26 27 28 29 30 31 32 33 34 35 36 37 38 39 40 41 42 43 44 45 46 47 48 49 50
000
ASUS43 KLOT 241008
RWRIL

ILLINOIS REGIONAL WEATHER ROUNDUP
NATIONAL WEATHER SERVICE CHICAGO/ROMEOVILLE IL
400 AM CST FRI FEB 24 2017

NOTE: "FAIR" INDICATES FEW OR NO CLOUDS BELOW 12,000 FEET WITH NO
SIGNIFICANT WEATHER AND/OR OBSTRUCTIONS TO VISIBILITY.

* THESE STATIONS ARE NOT UNDER NWS QUALITY CONTROL. THEY ALSO MAY NOT
  REPORT WEATHER SUCH AS PRECIPITATION OR FOG.

ILZ001-002-007-009-015-016-024-241100-
NORTHWEST ILLINOIS

CITY           SKY/WX    TMP DP  RH WIND       PRES   REMARKS
MOLINE         CLOUDY    41  37  86 NE13      29.42F
STERLING*      CLOUDY    39  38  96 NE12      29.50F WCI  32
$$

ILZ003-004-008-010-011-017-018-241100-
NORTH CENTRAL ILLINOIS

CITY           SKY/WX    TMP DP  RH WIND       PRES   REMARKS
ROCKFORD       LGT RAIN  38  35  89 NE18      29.56F WCI  28
FREEPORT*      CLOUDY    35  34  96 NE18      29.56F WCI  24
ROCHELLE*      CLOUDY    38  37  97 NE17      29.51F WCI  29
DE KALB*       CLOUDY    38  37  98 NE15      29.50F WCI  29
PERU*          CLOUDY    42  40  95 E12       29.47F FOG
$$

ILZ005-006-012>014-019>023-241100-
NORTHEAST ILLINOIS

CITY           SKY/WX    TMP DP  RH WIND       PRES   REMARKS
CHICAGO-OHARE  CLOUDY    40  38  93 NE12      29.53F
CHICAGO-MIDWAY CLOUDY    41  39  93 NE8       29.52F FOG
AURORA         CLOUDY    40  38  93 NE14      29.51F
LANSING*       CLOUDY    40  40 100 CALM      29.53S FOG
JOLIET*        CLOUDY    43  42  98 NE8       29.50F FOG
WAUKEGAN       CLOUDY    37  36  96 NE17G28   29.55F FOG     WCI  27
DUPAGE AIRPORT LGT RAIN  39  36  89 NE15      29.52F WCI  31
KANKAKEE*      CLOUDY    58  54  86 S14G20    29.49F
WHEELING       CLOUDY    38  36  92 NE13      29.55F WCI  30
MORRIS*        CLOUDY    42  41  95 NE6       29.47F FOG
ROMEOVILLE*    CLOUDY    40  40 100 NE9       29.51F FOG
NORTHERLY ISL    N/A     39  38  96 NW10        N/A  WCI  32
$$

LMZ740>746-241100-
SOUTHERN LAKE MICHIGAN

STATION/POSITION SKY/WX   TEMP    WIND        PRES    VSBY  WAVE
                          AIR SEA DIR/SP/G                  HT/PER
                          (F)     (DEG/KT/KT) (MB)    (MI)  (FT/S)
HARRISON CRIB              39      20/  8/  9   N/A
BURNHAM HARBOR             39      10/  8/ 11   N/A
CALUMET HARBOR             38     340/  5/  7  999.5F
BURNS HARBOR               41     100/  5/  7 1000.7F
MICHIGAN CITY              40      50/  2/  2   N/A
$$

ILZ025>027-034>036-040-047-049-050-058-095>099-241100-
WEST-CENTRAL ILLINOIS

CITY           SKY/WX    TMP DP  RH WIND       PRES   REMARKS
QUINCY         PTCLDY    61  55  81 S10       29.37F
GALESBURG*     CLOUDY    44  44 100 NE9       29.40F FOG
MACOMB*        MOCLDY    47  47  97 SE6       29.40R FOG
JACKSONVILLE*  LGT RAIN  59  54  85 S13       29.41F
PITTSFIELD*    MOCLDY    60  55  85 S9        29.41F
$$

ILZ028>032-037-038-041>044-048-051>054-059>061-241100-
CENTRAL ILLINOIS

CITY           SKY/WX    TMP DP  RH WIND       PRES   REMARKS
PONTIAC        CLOUDY    53  52  97 SE9       29.46F
BLOOMINGTON    PTCLDY    56  53  90 S17       29.47F
DECATUR        PTCLDY    60  54  80 S17G24    29.49S
PEORIA         CLOUDY    57  54  89 S14       29.42F
LACON*         CLOUDY    43  43 100 NE5       29.44F FOG
LINCOLN*       CLOUDY    59  56  90 S14       29.47R
SPRINGFIELD    CLOUDY    61  55  81 S20G30    29.47R
TAYLORVILLE    CLOUDY    59  55  87 S15       29.49S
$$

ILZ033-039-045-046-055>057-062-063-241100-
EAST-CENTRAL ILLINOIS

CITY           SKY/WX    TMP DP  RH WIND       PRES   REMARKS
CHAMPAIGN      CLEAR     60  54  80 S20       29.50F
RANTOUL*       CLEAR     58  56  91 S14       29.50F
MATTOON        CLEAR     60  56  86 S17G26    29.51F
PARIS*         MOCLDY    60  56  85 S25G37    29.55S
$$

ILZ079-100>102-241100-
SOUTHWEST ILLINOIS

CITY           SKY/WX    TMP DP  RH WIND       PRES   REMARKS
ALTON          LGT RAIN  59  54  82 SE7       29.48R
BELLEVILLE     CLOUDY    61  60  96 VRB7      29.48S
CAHOKIA*       MOCLDY    59  52  77 SE8       29.47S
SPARTA*        CLEAR     61  56  84 S23G31    29.50F
$$

ILZ064>066-069>071-074>076-080>082-084>086-088>090-092>094-241100-
SOUTH-CENTRAL ILLINOIS

CITY           SKY/WX    TMP DP  RH WIND       PRES   REMARKS
CARBONDALE     CLEAR     63  57  81 S20G30    29.54F
CAIRO*         CLEAR     61  57  86 S9        29.62R
EFFINGHAM*     CLEAR     60  57  89 SE10      29.55S
MARION         CLEAR     63  61  94 S18G26    29.59R
MT. VERNON     CLEAR     63  56  78 S18G26    29.53F
CENTRALIA*     CLEAR     62  58  85 S17G23    29.51S
SALEM*         PTCLDY    64  56  77 S13G22    29.52F
METROPOLIS*    CLEAR     63  57  82 CALM      29.63R
$$

ILZ067-068-072-073-078-083-087-091-241100-
SOUTHEAST ILLINOIS

CITY           SKY/WX    TMP DP  RH WIND       PRES   REMARKS
LAWRENCEVILLE  PTCLDY    60  55  83 S14       29.59S
FLORA*         PTCLDY    62  57  84 S15       29.55F
FAIRFIELD*     CLEAR     62  57  86 S10       29.56S
HARRISBURG*    PTCLDY    63  58  82 SW8G21    29.60R
ROBINSON*      CLEAR     60  55  83 S12G17    29.59R
CARMI*         PTCLDY    60  56  86 S12       29.60R
$$

ABBREVIATIONS USED IN REMARKS
   TC - TEMPERATURE IN CELSIUS
  WCI - WIND CHILL INDEX
   HX - HEAT INDEX
  VSB - VISIBILITY
$$





USA.gov is the U.S. government's official web portal to all federal, state and local government web resources and services.